Regional Weather Roundup
Issued by NWS Cleveland, OH

Home | Current Version | Previous Version | Text Only | Print | Product List | Glossary On
Versions: 1 2 3 4 5 6 7 8 9 10 11 12 13 14 15 16 17 18 19 20 21 22 23 24 25 26 27 28 29 30 31 32 33 34 35 36 37 38 39 40 41 42 43 44 45 46 47 48 49 50
000
ASUS41 KCLE 301610
RWRCLE
OHIO REGIONAL WEATHER ROUNDUP
NATIONAL WEATHER SERVICE WILMINGTON, OH
1200 PM EDT THU OCT 30 2014

NOTE: "FAIR" INDICATES FEW OR NO CLOUDS BELOW 12,000 FEET WITH NO
SIGNIFICANT WEATHER AND/OR OBSTRUCTIONS TO VISIBILITY.

OHZ001>008-015>018-024>027-034-035-043-044-301700-
   NORTHWEST OHIO

CITY           SKY/WX    TMP DP  RH WIND       PRES   REMARKS
DEFIANCE       CLOUDY    45  37  73 S3        30.17R
FINDLAY        MOSUNNY   48  36  63 E3        30.14F
TOLEDO EXPRESS CLOUDY    45  34  65 CALM      30.16R
TOLEDO METCALF PTSUNNY   48  34  58 NW5       30.16S
LIMA           CLOUDY    49  35  58 CALM      30.15S
$$

OHZ009>014-019>023-028>033-038-089-301700-
   NORTHEAST OHIO

CITY           SKY/WX    TMP DP  RH WIND       PRES   REMARKS
CLE-HOPKINS    PTSUNNY   48  37  65 NW7       30.15S
CLE-LAKEFRONT  PTSUNNY  N/A N/A N/A W9        30.12
CUY CO. ARPT   PTSUNNY   48  37  66 W9        30.13S
LORAIN-ELYRIA  MOSUNNY   49  37  63 NW12      30.14S
ASHTABULA      CLOUDY    48  39  71 W7        30.11F
AKRON-CANTON   PTSUNNY   47  38  71 NW5       30.12S
WOOSTER        CLOUDY    48  37  65 NW8       30.14R
MANSFIELD      MOSUNNY   47  37  68 NW3       30.14S
YOUNGSTOWN     CLOUDY    48  39  71 NW9       30.10S
$$

OHZ042-051>053-060>062-070>072-077>081-301700-
  SOUTHWEST OHIO

CITY           SKY/WX    TMP DP  RH WIND       PRES   REMARKS
CINC-COVINGTON PTSUNNY   51  33  50 CALM      30.15F
CINC-LUNKEN    PTSUNNY   51  34  52 VRB5      30.17F
HAMILTON       MOSUNNY   50  33  52 SE3       30.17F
DAYTON         CLOUDY    48  32  53 CALM      30.16F
WRIGHT-PAT AFB CLOUDY    47  32  55 W2        30.16S
DAYTON GENERAL CLOUDY    48  33  56 VRB3      30.15F
WILMINGTON     CLOUDY    48  30  49 CALM      30.15F
$$

OHZ036-037-039>041-045>050-054>059-063>069-073>076-082>088-301700-
  CENTRAL AND SOUTHEAST OHIO

CITY           SKY/WX    TMP DP  RH WIND       PRES   REMARKS
COLUMBUS       PTSUNNY   48  34  58 SW3       30.15S
OSU AIRPORT    PTSUNNY   49  36  61 W7        30.14F
BOLTON FIELD   PTSUNNY   48  36  61 W6        30.16S
RICKENBACK AFB CLOUDY    47  35  63 NW5       30.15F
NEWARK         PTSUNNY   49  34  56 VRB3      30.14S
MARION         PTSUNNY   47  35  63 VRB3      30.15F
LANCASTER      PTSUNNY   50  35  56 CALM      30.15S
ZANESVILLE     MOSUNNY   49  37  63 SW5       30.14S
NEW PHILLY     MOSUNNY   50  38  63 W7        30.13F
$$



USA.gov is the U.S. government's official web portal to all federal, state and local government web resources and services.